Location: Darlington Observatory
(36.4817°N, 105.8156°W)
Time: 16:10:26
(UTC-07:00)

NOSS 3-3 (A) - Visible Passes

Search period start: 25 February 2018 00:00
Search period end: 07 March 2018 00:00
Orbit: 888 x 1324 km, 63.4° (Epoch: 22 February)

Date Brightness Start Highest point End Pass type
(mag) Time Alt. Az. Time Alt. Az. Time Alt. Az.
25 Feb 7.2 19:31:59 10° WNW 19:36:09 15° WSW 19:40:24 10° SW visible
26 Feb 6.8 18:45:37 10° WNW 18:51:46 26° WSW 18:58:11 10° SSW visible
28 Feb 7.4 06:04:27 10° ESE 06:06:13 11° ESE 06:08:01 10° E visible
28 Feb 7.8 19:11:56 10° W 19:12:34 10° WSW 19:13:12 10° WSW visible
01 Mar 7.3 18:23:07 10° WNW 18:28:15 19° WSW 18:33:34 10° SSW visible
03 Mar 6.7 05:38:52 10° SE 05:42:36 17° ESE 05:46:29 10° ENE visible
05 Mar 5.3 05:57:50 10° S 06:03:25 44° ESE 06:09:25 10° NE visible
06 Mar 6.2 05:14:19 10° SSE 05:19:02 25° ESE 05:24:00 10° ENE visible
